User: anonymous   Login
Location: Buch
(50.1863°N, 11.0141°E)
Time: 21:26:37
(UTC+00:00)
Language:

Cosmos 2056 Rocket - Orbit

View from above orbital plane
View from above orbital plane
View from above satellite
View from above satellite

Ground track
Ground track

The orbit data is extracted from the following two-line orbital elements,

1 20433U 90004B   20088.06519493  .00000082  00000-0  36944-4 0  9990
2 20433  74.0345 292.8981 0040917 176.0387 299.8171 14.36089929580886
Epoch (UTC): 28 March 2020 01:33:52
Eccentricity: 0.0040917
inclination: 74.0345°
perigee height: 742 km
apogee height: 801 km
right ascension of ascending node: 292.8981°
argument of perigee: 176.0387°
revolutions per day: 14.36089929
mean anomaly at epoch: 299.8171°
orbit number at epoch: 58088

The dashed part of the orbit path shows where the satellite is in the earth's shadow,  

DLR